Wind_Speed
14 15 16 18 19 21 22 25 27 29 30 32 33 33 36 37 37 38 39 40 41 42 43 44 45 45 46 47 49 50 50 51 50 48 48 49 49 48 48 47 47 46 43
12 13 16 17 18 19 21 22 25 27 28 29 30 31 34 35 36 37 37 39 39 39 41 42 44 45 45 46 48 49 50 50 50 48 48 48 48 47 46 45 43 41 40
13 15 15 16 16 18 20 21 22 24 26 28 29 30 32 34 36 36 37 37 37 37 39 40 42 44 45 46 47 48 48 48 48 48 47 46 46 45 43 42 40 39 38
10 12 13 15 16 18 19 20 22 23 25 26 28 29 31 33 35 36 37 37 36 37 39 40 42 42 43 44 45 46 46 46 46 46 45 43 42 42 39 37 37 37 36
10 11 14 15 17 18 19 20 22 23 25 26 27 29 31 33 35 36 37 37 37 37 39 40 41 41 42 44 44 43 43 43 44 45 44 42 40 38 36 35 34 35 35
10 11 13 15 17 19 20 21 21 23 24 26 28 30 32 34 36 35 36 38 39 39 38 39 40 40 41 41 42 41 41 41 42 42 42 40 37 35 33 33 35 35 35
10 11 13 14 16 18 19 21 23 24 25 27 29 31 33 35 34 35 35 37 39 40 40 39 40 40 40 40 40 39 39 39 40 40 39 37 36 34 33 34 34 35 34
11 12 13 14 15 16 18 20 21 23 25 27 29 31 33 33 32 32 34 36 37 38 40 40 40 40 40 40 40 39 39 38 38 37 35 35 36 34 32 32 32 33 32
12 14 15 16 17 17 19 20 21 22 24 25 27 29 29 29 30 31 33 34 34 35 37 38 39 38 38 38 37 37 36 35 35 34 33 33 33 32 31 31 31 31 31
14 15 16 17 17 19 20 22 22 24 25 25 26 27 27 28 29 31 32 33 34 34 35 36 37 37 38 37 35 35 35 35 34 33 32 31 31 32 31 30 29 28 28
16 16 17 19 19 20 21 22 23 25 26 27 27 27 28 28 29 31 32 33 33 34 34 35 36 37 37 36 35 34 33 33 33 32 31 31 31 31 31 30 29 28 28
18 18 19 20 21 22 23 24 26 27 28 29 29 29 30 31 31 31 32 33 34 34 35 35 36 37 37 36 35 34 33 32 32 32 31 31 30 30 29 29 28 27 26
20 20 22 23 24 25 26 27 28 29 30 31 31 31 32 33 32 32 33 34 35 36 36 36 36 36 36 35 33 33 32 32 32 31 31 31 31 30 29 29 28 27 26
22 23 24 25 26 27 28 29 30 31 32 32 33 33 34 34 34 34 35 35 36 37 37 36 36 36 35 34 32 32 32 31 30 30 29 29 29 28 28 27 27 27 27
24 25 26 28 29 30 30 31 32 33 33 34 34 34 34 34 35 35 36 36 36 36 36 35 35 35 34 33 31 31 31 31 30 30 29 29 28 27 26 25 25 26 26
27 28 29 30 31 32 32 32 34 35 35 35 35 35 35 35 35 35 36 36 35 35 35 34 34 34 34 33 32 31 31 31 31 31 30 29 27 27 26 26 25 25 26
29 30 30 31 32 32 33 34 35 36 37 37 36 36 36 35 36 36 36 35 35 35 34 33 33 33 34 33 33 32 31 30 30 30 29 28 27 26 26 27 26 26 25
31 32 33 33 34 35 36 37 37 37 37 37 37 37 36 36 36 36 36 36 35 35 34 33 33 33 33 33 32 31 30 29 29 29 29 28 28 27 27 27 27 26 26
33 33 34 35 35 36 37 38 39 39 39 38 38 37 37 37 37 37 36 36 35 35 34 33 33 32 32 32 31 31 30 29 28 28 28 27 27 27 27 27 27 27 26
35 35 36 36 37 37 38 39 40 41 40 40 39 38 38 37 37 37 37 36 36 36 35 34 33 33 32 31 31 30 29 29 28 27 27 27 26 26 27 27 27 27 26
37 37 38 38 39 39 40 41 41 41 41 40 40 39 38 38 37 37 37 37 37 36 36 35 34 33 32 31 30 29 28 28 27 27 27 27 27 27 27 27 27 27 27
38 39 39 40 40 41 42 42 42 42 42 41 40 40 39 38 38 37 37 37 37 36 36 36 35 33 31 30 29 28 27 27 27 26 26 27 28 27 27 27 27 27 28
40 40 40 41 41 42 43 43 43 43 42 41 40 40 39 38 38 37 37 37 37 37 37 36 34 32 31 31 29 28 27 26 26 26 26 26 27 27 27 28 27 27 28
41 41 42 42 43 43 44 43 43 43 43 42 41 40 39 39 38 38 38 38 37 37 36 34 33 32 31 31 29 28 27 27 26 26 26 26 26 26 26 26 26 27 27
41 42 43 43 44 44 44 44 44 44 43 43 42 41 40 40 39 38 38 38 37 36 35 33 32 32 31 30 29 28 28 27 27 26 27 26 26 26 26 26 27 27 27
42 43 43 44 44 45 45 45 44 44 44 43 42 41 41 40 40 39 39 38 37 36 34 33 32 31 30 30 29 28 27 27 26 26 26 26 26 26 26 26 26 27 27
Wind_Direction
224 228 233 237 241 245 250 255 258 259 258 260 262 264 261 261 264 266 269 270 272 273 274 275 276 278 278 278 279 280 282 283 284 286 287 284 281 280 280 280 278 276 275
226 233 238 242 245 250 256 259 260 260 261 262 264 266 267 266 268 269 271 273 274 275 276 277 278 279 280 279 280 281 282 283 284 285 286 285 281 278 278 278 276 275 272
242 243 244 246 253 259 264 264 264 265 266 266 267 269 272 273 273 272 273 274 274 277 280 280 280 281 281 281 281 281 282 283 284 286 286 283 280 279 278 276 274 272 270
248 249 252 255 262 268 270 270 271 272 272 273 273 275 278 280 278 275 275 275 276 279 281 282 283 283 283 283 283 284 283 283 285 287 286 284 280 278 277 273 271 272 270
260 262 264 265 269 272 276 277 278 277 275 276 278 280 282 283 282 279 277 277 278 280 281 282 283 285 287 286 285 285 284 284 286 287 286 284 281 278 276 272 269 268 267
272 276 276 275 277 278 280 281 282 282 281 282 283 285 286 287 284 281 281 280 280 281 281 283 284 286 287 288 288 286 285 286 287 287 284 282 280 277 274 270 267 266 266
279 284 287 286 285 284 283 283 285 287 288 289 290 289 290 291 288 284 283 284 283 283 282 283 285 286 286 286 287 286 287 288 287 287 285 281 277 274 272 270 268 265 264
284 287 292 295 298 298 295 292 291 293 294 295 295 295 294 293 290 289 288 287 284 284 283 283 284 284 284 285 286 286 286 288 289 288 285 280 276 273 272 270 269 268 265
288 290 291 293 295 299 300 299 297 298 299 299 301 300 298 296 294 293 293 292 290 288 286 286 286 286 287 287 286 286 286 288 289 287 284 279 274 271 269 267 268 267 263
288 291 292 295 295 298 301 301 300 300 302 303 304 303 302 299 296 296 296 296 295 291 288 289 289 289 290 290 288 287 286 288 288 286 281 276 272 270 269 266 267 265 261
286 290 293 295 296 299 302 304 304 304 305 307 307 306 304 301 299 299 300 300 299 294 290 290 290 290 290 291 289 287 287 287 286 284 280 275 271 269 267 265 264 263 261
287 290 292 295 297 299 302 304 305 305 306 307 307 306 305 304 302 301 302 302 300 299 295 293 293 293 292 292 290 286 286 284 282 281 278 274 270 269 266 264 263 262 262
288 291 294 296 298 300 301 302 304 305 305 304 304 304 304 304 302 302 303 302 301 300 298 296 296 296 295 292 289 285 283 284 282 279 278 275 271 268 265 263 262 260 259
289 291 293 295 297 299 300 302 304 305 305 304 302 302 303 303 302 301 301 301 301 300 299 298 298 298 297 294 290 285 283 283 281 277 275 274 271 268 266 264 262 259 258
288 291 293 295 296 298 300 301 304 306 306 305 304 305 305 304 303 302 302 302 302 300 299 299 299 298 297 295 291 287 283 282 280 277 276 275 271 267 264 261 260 259 259
288 291 294 296 296 297 299 300 303 305 305 305 305 305 305 305 304 304 305 306 304 302 300 300 300 299 297 295 292 289 286 283 279 276 273 273 269 265 262 261 261 259 258
288 291 293 295 297 298 299 301 303 305 305 305 304 304 304 305 304 304 305 305 305 304 302 302 301 300 298 295 292 289 286 282 279 275 272 271 267 264 260 258 258 258 257
287 290 292 295 297 298 299 300 302 304 304 304 303 303 303 303 303 304 304 305 304 303 303 302 302 301 300 296 292 289 287 283 280 277 272 270 267 263 259 257 257 255 255
288 289 292 294 296 298 299 301 302 303 303 302 302 302 302 302 302 302 303 304 303 303 302 300 299 299 298 297 294 289 286 283 280 277 273 270 266 262 259 258 257 255 254
289 290 292 294 296 297 299 300 302 303 303 303 302 301 301 301 301 301 302 302 303 302 301 300 299 298 297 296 294 291 286 282 279 275 272 269 266 262 260 258 256 253 252
288 290 291 293 294 296 298 299 301 302 302 301 301 300 300 300 300 300 299 300 301 301 300 299 298 297 296 294 293 289 285 280 276 273 270 268 266 262 259 257 254 252 249
287 289 291 293 294 296 297 299 300 301 301 300 300 299 299 299 300 299 299 299 300 299 299 298 296 295 293 292 290 287 283 280 276 272 269 267 264 261 257 255 254 252 248
286 288 290 292 295 296 297 298 299 299 299 299 298 298 298 298 299 299 298 298 298 297 297 297 295 293 291 290 288 284 282 279 275 271 269 266 263 260 257 255 253 249 247
286 288 290 292 294 296 297 298 298 298 298 297 296 296 296 296 297 297 297 297 297 297 296 294 292 291 290 288 285 282 279 277 274 271 267 263 260 258 256 254 252 250 248
286 288 290 292 293 295 296 297 297 297 296 296 295 294 294 294 294 295 295 295 295 294 293 292 290 289 288 286 283 280 278 276 273 270 266 262 260 258 255 253 252 251 250
286 288 290 292 293 295 296 296 296 296 296 295 294 294 294 293 292 292 293 293 292 291 291 290 289 288 286 283 281 279 277 275 272 270 268 263 259 256 255 254 253 253 251
Height
5663 5665 5667 5668 5670 5671 5672 5673 5674 5675 5676 5676 5677 5678 5679 5680 5681 5681 5681 5680 5679 5678 5677 5675 5674 5672 5669 5666 5663 5660 5656 5652 5649 5647 5643 5639 5636 5634 5631 5629 5627 5626 5625
5660 5662 5663 5664 5666 5667 5667 5667 5668 5668 5668 5669 5669 5669 5670 5670 5671 5671 5670 5669 5667 5666 5664 5663 5661 5659 5656 5653 5650 5647 5643 5639 5635 5632 5629 5625 5622 5620 5618 5616 5615 5613 5614
5657 5658 5660 5661 5661 5662 5662 5662 5662 5661 5661 5662 5662 5661 5661 5661 5660 5659 5659 5657 5656 5654 5652 5651 5649 5646 5643 5640 5637 5633 5630 5626 5622 5619 5616 5612 5610 5607 5605 5604 5603 5602 5603
5655 5655 5656 5656 5657 5657 5656 5656 5656 5655 5655 5654 5654 5654 5652 5651 5650 5648 5647 5646 5645 5643 5642 5639 5637 5634 5631 5628 5624 5621 5617 5614 5610 5606 5603 5600 5598 5595 5593 5592 5592 5592 5593
5652 5652 5652 5652 5652 5651 5651 5650 5649 5649 5648 5648 5647 5646 5644 5643 5641 5639 5637 5635 5634 5632 5630 5628 5625 5622 5619 5616 5612 5609 5605 5601 5598 5595 5591 5588 5586 5585 5583 5583 5582 5582 5583
5649 5649 5648 5648 5647 5647 5646 5645 5644 5642 5642 5641 5640 5638 5636 5634 5631 5628 5626 5624 5622 5621 5619 5616 5613 5611 5607 5604 5600 5596 5593 5590 5587 5583 5580 5577 5576 5575 5574 5573 5573 5573 5574
5647 5646 5645 5644 5643 5642 5641 5640 5638 5637 5635 5634 5632 5629 5627 5624 5621 5618 5615 5613 5611 5609 5607 5605 5602 5599 5596 5593 5589 5585 5582 5579 5575 5572 5568 5566 5565 5565 5565 5564 5564 5564 5565
5644 5643 5642 5641 5639 5638 5636 5634 5632 5630 5628 5626 5624 5621 5618 5615 5612 5609 5606 5603 5600 5598 5596 5593 5590 5587 5584 5581 5578 5575 5572 5568 5565 5561 5558 5557 5555 5555 5555 5555 5554 5554 5555
5640 5639 5638 5637 5636 5634 5631 5629 5627 5624 5622 5619 5616 5613 5609 5606 5603 5600 5597 5594 5591 5588 5585 5582 5579 5576 5574 5571 5567 5564 5561 5558 5554 5551 5549 5547 5546 5546 5546 5546 5546 5546 5546
5637 5635 5634 5633 5631 5629 5627 5624 5621 5618 5615 5612 5609 5605 5601 5598 5596 5592 5589 5585 5582 5578 5575 5572 5569 5566 5562 5559 5556 5553 5551 5548 5545 5542 5540 5538 5537 5537 5537 5537 5538 5538 5538
5632 5631 5630 5628 5626 5624 5622 5619 5616 5613 5609 5606 5602 5598 5595 5591 5588 5584 5580 5576 5572 5568 5565 5562 5558 5555 5551 5548 5545 5543 5541 5539 5536 5533 5531 5530 5529 5528 5528 5528 5529 5530 5531
5627 5626 5624 5623 5621 5619 5616 5613 5609 5606 5603 5599 5595 5591 5587 5583 5579 5575 5571 5567 5563 5559 5555 5551 5548 5544 5540 5537 5535 5533 5531 5528 5526 5524 5522 5521 5520 5520 5520 5520 5521 5522 5523
5622 5620 5618 5617 5614 5612 5609 5606 5602 5599 5595 5592 5588 5584 5580 5575 5571 5567 5562 5558 5553 5549 5545 5541 5537 5533 5529 5526 5524 5523 5521 5518 5516 5515 5513 5512 5511 5511 5511 5512 5512 5513 5515
5616 5614 5612 5610 5607 5605 5602 5598 5595 5591 5587 5583 5579 5575 5571 5567 5562 5558 5554 5549 5544 5539 5535 5531 5527 5523 5520 5517 5514 5513 5511 5508 5507 5506 5505 5504 5503 5503 5503 5504 5505 5506 5507
5609 5607 5605 5602 5600 5597 5594 5590 5587 5583 5578 5574 5570 5566 5562 5557 5553 5548 5544 5539 5535 5530 5526 5522 5517 5514 5510 5507 5505 5503 5501 5499 5497 5497 5496 5495 5495 5495 5495 5496 5497 5498 5499
5601 5599 5597 5594 5591 5589 5585 5582 5578 5574 5569 5565 5560 5556 5552 5548 5543 5539 5534 5529 5525 5521 5517 5513 5509 5505 5501 5499 5496 5494 5492 5490 5489 5488 5487 5487 5487 5487 5488 5489 5489 5491 5492
5593 5591 5588 5586 5583 5579 5576 5573 5569 5565 5560 5555 5551 5546 5542 5538 5534 5529 5525 5520 5516 5511 5508 5504 5500 5496 5493 5490 5487 5485 5483 5481 5480 5479 5479 5479 5478 5479 5480 5481 5482 5483 5484
5584 5582 5579 5576 5574 5570 5567 5563 5559 5555 5550 5545 5541 5536 5532 5528 5524 5519 5515 5511 5506 5502 5499 5495 5491 5488 5484 5481 5478 5476 5474 5472 5471 5470 5470 5470 5470 5470 5471 5472 5474 5475 5476
5575 5572 5570 5567 5564 5561 5557 5553 5549 5544 5540 5535 5530 5526 5522 5517 5513 5509 5505 5501 5497 5493 5490 5486 5482 5479 5476 5473 5470 5467 5465 5463 5462 5461 5461 5461 5461 5462 5463 5464 5465 5466 5468
5564 5562 5559 5557 5554 5550 5546 5542 5538 5534 5529 5524 5520 5515 5511 5507 5503 5499 5495 5492 5488 5484 5480 5477 5473 5470 5466 5463 5461 5458 5456 5454 5453 5452 5452 5452 5452 5453 5454 5455 5456 5458 5460
5554 5551 5549 5546 5543 5539 5535 5531 5527 5522 5518 5513 5509 5505 5500 5496 5493 5489 5485 5481 5477 5474 5470 5466 5463 5460 5457 5454 5451 5449 5447 5445 5444 5443 5443 5443 5443 5444 5445 5446 5448 5449 5451
5543 5540 5537 5534 5531 5527 5523 5519 5515 5510 5506 5501 5497 5493 5489 5485 5482 5478 5474 5471 5467 5463 5460 5456 5453 5449 5447 5444 5441 5439 5438 5436 5435 5435 5434 5435 5435 5435 5436 5438 5439 5441 5443
5531 5528 5525 5522 5518 5515 5511 5507 5502 5498 5493 5489 5485 5481 5477 5474 5470 5467 5463 5459 5456 5452 5449 5445 5442 5439 5437 5434 5432 5430 5428 5427 5427 5426 5426 5426 5427 5427 5428 5430 5431 5433 5435
5518 5515 5513 5509 5506 5502 5498 5494 5489 5485 5481 5477 5473 5469 5466 5462 5459 5455 5451 5448 5444 5441 5437 5434 5432 5429 5427 5424 5422 5421 5419 5418 5418 5418 5418 5418 5418 5419 5420 5421 5423 5424 5426
5505 5502 5499 5496 5493 5489 5485 5480 5476 5472 5468 5464 5460 5456 5453 5449 5446 5443 5439 5436 5432 5429 5426 5423 5421 5419 5417 5415 5413 5411 5410 5409 5409 5409 5409 5409 5410 5411 5412 5413 5414 5415 5417
5491 5489 5486 5482 5479 5475 5471 5467 5462 5458 5454 5450 5446 5443 5440 5436 5433 5430 5427 5424 5420 5418 5415 5413 5410 5408 5407 5405 5403 5402 5401 5401 5400 5400 5400 5401 5401 5402 5403 5404 5405 5406 5408